owner,sensor,date,latitude,longitude,vertical_datum,sea_water_practical_salinity,qcFlag 
DISL,ioos:station:DISL:PPTA:1,2017-01-01T00:00:00Z,30.2791,-87.5561,1.3,32.0,11111222 
DISL,ioos:station:DISL:PPTA:1,2017-01-01T00:30:00Z,30.2791,-87.5561,1.4,32.7,11111222 
DISL,ioos:station:DISL:PPTA:1,2017-01-01T01:00:00Z,30.2791,-87.5561,1.4,33.2,11111222 
DISL,ioos:station:DISL:PPTA:1,2017-01-01T01:30:00Z,30.2791,-87.5561,1.4,33.3,11111222 
DISL,ioos:station:DISL:PPTA:1,2017-01-01T02:00:00Z,30.2791,-87.5561,1.4,33.4,11111222 
DISL,ioos:station:DISL:PPTA:1,2017-01-01T02:30:00Z,30.2791,-87.5561,1.5,33.8,11111222 
DISL,ioos:station:DISL:PPTA:1,2017-01-01T03:00:00Z,30.2791,-87.5561,1.5,33.8,11111222 
DISL,ioos:station:DISL:PPTA:1,2017-01-01T03:30:00Z,30.2791,-87.5561,1.5,33.7,11111222 
DISL,ioos:station:DISL:PPTA:1,2017-01-01T04:00:00Z,30.2791,-87.5561,1.5,33.7,11111222 
DISL,ioos:station:DISL:PPTA:1,2017-01-01T04:30:00Z,30.2791,-87.5561,1.5,33.7,11111222 
DISL,ioos:station:DISL:PPTA:1,2017-01-01T05:00:00Z,30.2791,-87.5561,1.5,33.7,11111222 
DISL,ioos:station:DISL:PPTA:1,2017-01-01T05:30:00Z,30.2791,-87.5561,1.5,33.7,11111222 
DISL,ioos:station:DISL:PPTA:1,2017-01-01T06:00:00Z,30.2791,-87.5561,1.5,33.7,11111222 
DISL,ioos:station:DISL:PPTA:1,2017-01-01T06:30:00Z,30.2791,-87.5561,1.516,33.86,1111122 
DISL,ioos:station:DISL:PPTA:1,2017-01-01T07:00:00Z,30.2791,-87.5561,1.485,33.88,1111122 
DISL,ioos:station:DISL:PPTA:1,2017-01-01T07:30:00Z,30.2791,-87.5561,1.445,33.95,1111122 
DISL,ioos:station:DISL:PPTA:1,2017-01-01T08:00:00Z,30.2791,-87.5561,1.443,33.78,1111122 
DISL,ioos:station:DISL:PPTA:1,2017-01-01T08:30:00Z,30.2791,-87.5561,1.392,33.9,1111122 
DISL,ioos:station:DISL:PPTA:1,2017-01-01T09:00:00Z,30.2791,-87.5561,1.415,33.02,1111122 
DISL,ioos:station:DISL:PPTA:1,2017-01-01T09:30:00Z,30.2791,-87.5561,1.431,31.21,1111122 
DISL,ioos:station:DISL:PPTA:1,2017-01-01T10:00:00Z,30.2791,-87.5561,1.393,32.73,1111122 
DISL,ioos:station:DISL:PPTA:1,2017-01-01T10:30:00Z,30.2791,-87.5561,1.397,33.08,1111122 
DISL,ioos:station:DISL:PPTA:1,2017-01-01T11:00:00Z,30.2791,-87.5561,1.383,33.17,1111122 
DISL,ioos:station:DISL:PPTA:1,2017-01-01T11:30:00Z,30.2791,-87.5561,1.401,32.95,1111122 
DISL,ioos:station:DISL:PPTA:1,2017-01-01T12:00:00Z,30.2791,-87.5561,1.38,32.84,1111122 
DISL,ioos:station:DISL:PPTA:1,2017-01-01T12:30:00Z,30.2791,-87.5561,1.37,32.81,1111122 
DISL,ioos:station:DISL:PPTA:1,2017-01-01T13:00:00Z,30.2791,-87.5561,1.381,31.03,1111122 
DISL,ioos:station:DISL:PPTA:1,2017-01-01T13:30:00Z,30.2791,-87.5561,1.384,31.49,1111122 
DISL,ioos:station:DISL:PPTA:1,2017-01-01T14:00:00Z,30.2791,-87.5561,1.384,30.21,1111122 
DISL,ioos:station:DISL:PPTA:1,2017-01-01T14:30:00Z,30.2791,-87.5561,1.375,30.11,1111122 
DISL,ioos:station:DISL:PPTA:1,2017-01-01T15:00:00Z,30.2791,-87.5561,1.386,30.87,1111122 
DISL,ioos:station:DISL:PPTA:1,2017-01-01T15:30:00Z,30.2791,-87.5561,1.39,29.07,1111122 
DISL,ioos:station:DISL:PPTA:1,2017-01-01T16:00:00Z,30.2791,-87.5561,1.377,28.89,1111122 
DISL,ioos:station:DISL:PPTA:1,2017-01-01T16:30:00Z,30.2791,-87.5561,1.386,28.3,1111122 
DISL,ioos:station:DISL:PPTA:1,2017-01-01T17:00:00Z,30.2791,-87.5561,1.369,28.62,1111122 
DISL,ioos:station:DISL:PPTA:1,2017-01-01T17:30:00Z,30.2791,-87.5561,1.383,29.19,1111122 
DISL,ioos:station:DISL:PPTA:1,2017-01-01T18:00:00Z,30.2791,-87.5561,1.397,30.77,1111122 
DISL,ioos:station:DISL:PPTA:1,2017-01-01T18:30:00Z,30.2791,-87.5561,1.404,28.45,1111122 
DISL,ioos:station:DISL:PPTA:1,2017-01-01T19:00:00Z,30.2791,-87.5561,1.394,29.12,1111122 
DISL,ioos:station:DISL:PPTA:1,2017-01-01T19:30:00Z,30.2791,-87.5561,1.406,29.29,1111122 
DISL,ioos:station:DISL:PPTA:1,2017-01-01T20:00:00Z,30.2791,-87.5561,1.419,30.47,1111122 
DISL,ioos:station:DISL:PPTA:1,2017-01-01T20:30:00Z,30.2791,-87.5561,1.429,30.92,1111122 
DISL,ioos:station:DISL:PPTA:1,2017-01-01T21:00:00Z,30.2791,-87.5561,1.452,31.74,1111122 
DISL,ioos:station:DISL:PPTA:1,2017-01-01T21:30:00Z,30.2791,-87.5561,1.472,32.47,1111122 
DISL,ioos:station:DISL:PPTA:1,2017-01-01T22:00:00Z,30.2791,-87.5561,1.48,32.65,1111122 
DISL,ioos:station:DISL:PPTA:1,2017-01-01T22:30:00Z,30.2791,-87.5561,1.496,32.61,1111122 
DISL,ioos:station:DISL:PPTA:1,2017-01-01T23:00:00Z,30.2791,-87.5561,1.493,32.74,1111122 
DISL,ioos:station:DISL:PPTA:1,2017-01-01T23:30:00Z,30.2791,-87.5561,1.524,33.0,1111122 
DISL,ioos:station:DISL:PPTA:1,2017-01-02T00:00:00Z,30.2791,-87.5561,1.53,33.18,1111122 
DISL,ioos:station:DISL:PPTA:1,2017-01-02T00:30:00Z,30.2791,-87.5561,1.553,33.17,1111122 
DISL,ioos:station:DISL:PPTA:1,2017-01-02T01:00:00Z,30.2791,-87.5561,1.597,33.31,1111122 
DISL,ioos:station:DISL:PPTA:1,2017-01-02T01:30:00Z,30.2791,-87.5561,1.61,33.34,1111122 
DISL,ioos:station:DISL:PPTA:1,2017-01-02T02:00:00Z,30.2791,-87.5561,1.636,33.36,1111122 
DISL,ioos:station:DISL:PPTA:1,2017-01-02T02:30:00Z,30.2791,-87.5561,1.651,33.38,1111122 
DISL,ioos:station:DISL:PPTA:1,2017-01-02T03:00:00Z,30.2791,-87.5561,1.67,33.44,1111122 
DISL,ioos:station:DISL:PPTA:1,2017-01-02T03:30:00Z,30.2791,-87.5561,1.657,33.46,1111122 
DISL,ioos:station:DISL:PPTA:1,2017-01-02T04:00:00Z,30.2791,-87.5561,1.696,33.53,1111122 
DISL,ioos:station:DISL:PPTA:1,2017-01-02T04:30:00Z,30.2791,-87.5561,1.677,33.04,1111122 
DISL,ioos:station:DISL:PPTA:1,2017-01-02T05:00:00Z,30.2791,-87.5561,1.688,33.54,1111122 
DISL,ioos:station:DISL:PPTA:1,2017-01-02T05:30:00Z,30.2791,-87.5561,1.623,33.15,1111122 
DISL,ioos:station:DISL:PPTA:1,2017-01-02T06:00:00Z,30.2791,-87.5561,1.671,31.44,1111122 
DISL,ioos:station:DISL:PPTA:1,2017-01-02T06:30:00Z,30.2791,-87.5561,1.699,31.5,1111122 
DISL,ioos:station:DISL:PPTA:1,2017-01-02T07:00:00Z,30.2791,-87.5561,1.672,31.72,1111122 
DISL,ioos:station:DISL:PPTA:1,2017-01-02T07:30:00Z,30.2791,-87.5561,1.686,32.24,1111122 
DISL,ioos:station:DISL:PPTA:1,2017-01-02T08:00:00Z,30.2791,-87.5561,1.647,32.14,1111122 
DISL,ioos:station:DISL:PPTA:1,2017-01-02T08:30:00Z,30.2791,-87.5561,1.645,31.52,1111122 
DISL,ioos:station:DISL:PPTA:1,2017-01-02T09:00:00Z,30.2791,-87.5561,1.612,30.2,1111122 
DISL,ioos:station:DISL:PPTA:1,2017-01-02T09:30:00Z,30.2791,-87.5561,1.587,30.23,1111122 
DISL,ioos:station:DISL:PPTA:1,2017-01-02T10:00:00Z,30.2791,-87.5561,1.547,29.92,1111122 
DISL,ioos:station:DISL:PPTA:1,2017-01-02T10:30:00Z,30.2791,-87.5561,1.53,29.86,1111122 
DISL,ioos:station:DISL:PPTA:1,2017-01-02T11:00:00Z,30.2791,-87.5561,1.515,29.6,1111122 
DISL,ioos:station:DISL:PPTA:1,2017-01-02T11:30:00Z,30.2791,-87.5561,1.513,28.77,1111122 
DISL,ioos:station:DISL:PPTA:1,2017-01-02T12:00:00Z,30.2791,-87.5561,1.473,28.33,1111122 
DISL,ioos:station:DISL:PPTA:1,2017-01-02T12:30:00Z,30.2791,-87.5561,1.474,27.17,1111122 
DISL,ioos:station:DISL:PPTA:1,2017-01-02T13:00:00Z,30.2791,-87.5561,1.459,26.38,1111122 
DISL,ioos:station:DISL:PPTA:1,2017-01-02T13:30:00Z,30.2791,-87.5561,1.443,25.79,1111122 
DISL,ioos:station:DISL:PPTA:1,2017-01-02T14:00:00Z,30.2791,-87.5561,1.449,25.25,1111122 
DISL,ioos:station:DISL:PPTA:1,2017-01-02T14:30:00Z,30.2791,-87.5561,1.426,24.85,1111122 
DISL,ioos:station:DISL:PPTA:1,2017-01-02T15:00:00Z,30.2791,-87.5561,1.437,24.37,1111122 
DISL,ioos:station:DISL:PPTA:1,2017-01-02T15:30:00Z,30.2791,-87.5561,1.425,24.05,1111122 
DISL,ioos:station:DISL:PPTA:1,2017-01-02T16:00:00Z,30.2791,-87.5561,1.414,23.78,1111122 
DISL,ioos:station:DISL:PPTA:1,2017-01-02T16:30:00Z,30.2791,-87.5561,1.419,23.56,1111122 
DISL,ioos:station:DISL:PPTA:1,2017-01-02T17:00:00Z,30.2791,-87.5561,1.383,23.32,1111122 
DISL,ioos:station:DISL:PPTA:1,2017-01-02T17:30:00Z,30.2791,-87.5561,1.378,22.84,1111122 
DISL,ioos:station:DISL:PPTA:1,2017-01-02T18:00:00Z,30.2791,-87.5561,1.39,22.41,1111122 
DISL,ioos:station:DISL:PPTA:1,2017-01-02T18:30:00Z,30.2791,-87.5561,1.415,23.23,1111122 
DISL,ioos:station:DISL:PPTA:1,2017-01-02T19:00:00Z,30.2791,-87.5561,1.414,24.21,1111122 
DISL,ioos:station:DISL:PPTA:1,2017-01-02T19:30:00Z,30.2791,-87.5561,1.435,27.98,1111122 
DISL,ioos:station:DISL:PPTA:1,2017-01-02T20:00:00Z,30.2791,-87.5561,1.479,26.61,1111122 
DISL,ioos:station:DISL:PPTA:1,2017-01-02T20:30:00Z,30.2791,-87.5561,1.402,29.95,1111122 
DISL,ioos:station:DISL:PPTA:1,2017-01-02T21:00:00Z,30.2791,-87.5561,1.496,23.73,1111122 
DISL,ioos:station:DISL:PPTA:1,2017-01-02T21:30:00Z,30.2791,-87.5561,1.439,25.14,1111122 
DISL,ioos:station:DISL:PPTA:1,2017-01-02T22:00:00Z,30.2791,-87.5561,1.328,22.14,1111122 
DISL,ioos:station:DISL:PPTA:1,2017-01-02T22:30:00Z,30.2791,-87.5561,1.424,19.23,1111122 
DISL,ioos:station:DISL:PPTA:1,2017-01-02T23:00:00Z,30.2791,-87.5561,1.448,23.12,1111122 
DISL,ioos:station:DISL:PPTA:1,2017-01-02T23:30:00Z,30.2791,-87.5561,1.512,26.07,1111122 
DISL,ioos:station:DISL:PPTA:1,2017-01-03T00:00:00Z,30.2791,-87.5561,1.497,22.26,1111122 
DISL,ioos:station:DISL:PPTA:1,2017-01-03T00:30:00Z,30.2791,-87.5561,1.526,22.85,1111122 
DISL,ioos:station:DISL:PPTA:1,2017-01-03T01:00:00Z,30.2791,-87.5561,1.563,23.08,1111122 
DISL,ioos:station:DISL:PPTA:1,2017-01-03T01:30:00Z,30.2791,-87.5561,1.515,21.67,1111122 
DISL,ioos:station:DISL:PPTA:1,2017-01-03T02:00:00Z,30.2791,-87.5561,1.559,18.94,1111122 
DISL,ioos:station:DISL:PPTA:1,2017-01-03T02:30:00Z,30.2791,-87.5561,1.537,20.17,1111122 
DISL,ioos:station:DISL:PPTA:1,2017-01-03T03:00:00Z,30.2791,-87.5561,1.628,20.26,1111122 
DISL,ioos:station:DISL:PPTA:1,2017-01-03T03:30:00Z,30.2791,-87.5561,1.631,24.55,1111122 
DISL,ioos:station:DISL:PPTA:1,2017-01-03T04:00:00Z,30.2791,-87.5561,1.593,21.81,1111122 
DISL,ioos:station:DISL:PPTA:1,2017-01-03T04:30:00Z,30.2791,-87.5561,1.623,22.88,1111122 
DISL,ioos:station:DISL:PPTA:1,2017-01-03T05:00:00Z,30.2791,-87.5561,1.618,20.34,1111122 
DISL,ioos:station:DISL:PPTA:1,2017-01-03T05:30:00Z,30.2791,-87.5561,1.599,21.63,1111122 
DISL,ioos:station:DISL:PPTA:1,2017-01-03T06:00:00Z,30.2791,-87.5561,1.603,22.22,1111122 
DISL,ioos:station:DISL:PPTA:1,2017-01-03T06:30:00Z,30.2791,-87.5561,1.603,24.99,1111122 
DISL,ioos:station:DISL:PPTA:1,2017-01-03T07:00:00Z,30.2791,-87.5561,1.596,22.38,1111122 
DISL,ioos:station:DISL:PPTA:1,2017-01-03T07:30:00Z,30.2791,-87.5561,1.638,19.97,1111122 
DISL,ioos:station:DISL:PPTA:1,2017-01-03T08:00:00Z,30.2791,-87.5561,1.627,21.21,1111122 
DISL,ioos:station:DISL:PPTA:1,2017-01-03T08:30:00Z,30.2791,-87.5561,1.598,20.66,1111122 
DISL,ioos:station:DISL:PPTA:1,2017-01-03T09:00:00Z,30.2791,-87.5561,1.595,19.42,1111122 
DISL,ioos:station:DISL:PPTA:1,2017-01-03T09:30:00Z,30.2791,-87.5561,1.588,20.79,1111122 
DISL,ioos:station:DISL:PPTA:1,2017-01-03T10:00:00Z,30.2791,-87.5561,1.592,20.08,1111122 
DISL,ioos:station:DISL:PPTA:1,2017-01-03T10:30:00Z,30.2791,-87.5561,1.582,20.27,1111122 
DISL,ioos:station:DISL:PPTA:1,2017-01-03T11:00:00Z,30.2791,-87.5561,1.545,20.66,1111122 
DISL,ioos:station:DISL:PPTA:1,2017-01-03T11:30:00Z,30.2791,-87.5561,1.553,20.71,1111122 
DISL,ioos:station:DISL:PPTA:1,2017-01-03T12:00:00Z,30.2791,-87.5561,1.523,20.64,1111122 
DISL,ioos:station:DISL:PPTA:1,2017-01-03T12:30:00Z,30.2791,-87.5561,1.506,20.84,1111122 
DISL,ioos:station:DISL:PPTA:1,2017-01-03T13:00:00Z,30.2791,-87.5561,1.496,20.82,1111122 
DISL,ioos:station:DISL:PPTA:1,2017-01-03T13:30:00Z,30.2791,-87.5561,1.509,20.8,1111122 
DISL,ioos:station:DISL:PPTA:1,2017-01-03T14:00:00Z,30.2791,-87.5561,1.51,20.66,1111122 
DISL,ioos:station:DISL:PPTA:1,2017-01-03T14:30:00Z,30.2791,-87.5561,1.509,20.4,1111122 
DISL,ioos:station:DISL:PPTA:1,2017-01-03T15:00:00Z,30.2791,-87.5561,1.487,20.19,1111122 
DISL,ioos:station:DISL:PPTA:1,2017-01-03T15:30:00Z,30.2791,-87.5561,1.483,20.04,1111122 
DISL,ioos:station:DISL:PPTA:1,2017-01-03T16:00:00Z,30.2791,-87.5561,1.481,19.86,1111122 
DISL,ioos:station:DISL:PPTA:1,2017-01-03T16:30:00Z,30.2791,-87.5561,1.475,19.74,1111122 
DISL,ioos:station:DISL:PPTA:1,2017-01-03T17:00:00Z,30.2791,-87.5561,1.473,19.5,1111122 
DISL,ioos:station:DISL:PPTA:1,2017-01-03T17:30:00Z,30.2791,-87.5561,1.467,18.88,1111122 
DISL,ioos:station:DISL:PPTA:1,2017-01-03T18:00:00Z,30.2791,-87.5561,1.475,18.14,1111122 
DISL,ioos:station:DISL:PPTA:1,2017-01-03T18:30:00Z,30.2791,-87.5561,1.483,18.05,1111122 
DISL,ioos:station:DISL:PPTA:1,2017-01-03T19:00:00Z,30.2791,-87.5561,1.471,17.77,1111122 
DISL,ioos:station:DISL:PPTA:1,2017-01-03T19:30:00Z,30.2791,-87.5561,1.508,18.37,1111122 
DISL,ioos:station:DISL:PPTA:1,2017-01-03T20:00:00Z,30.2791,-87.5561,1.486,18.77,1111122 
DISL,ioos:station:DISL:PPTA:1,2017-01-03T20:30:00Z,30.2791,-87.5561,1.503,19.84,1111122 
DISL,ioos:station:DISL:PPTA:1,2017-01-03T21:00:00Z,30.2791,-87.5561,1.499,18.24,1111122 
DISL,ioos:station:DISL:PPTA:1,2017-01-03T21:30:00Z,30.2791,-87.5561,1.486,21.81,1111122 
DISL,ioos:station:DISL:PPTA:1,2017-01-03T22:00:00Z,30.2791,-87.5561,1.501,15.69,1111122 
DISL,ioos:station:DISL:PPTA:1,2017-01-03T22:30:00Z,30.2791,-87.5561,1.495,15.66,1111122 
DISL,ioos:station:DISL:PPTA:1,2017-01-03T23:00:00Z,30.2791,-87.5561,1.498,15.69,1111122 
DISL,ioos:station:DISL:PPTA:1,2017-01-03T23:30:00Z,30.2791,-87.5561,1.505,15.12,1111122 
DISL,ioos:station:DISL:PPTA:1,2017-01-04T00:00:00Z,30.2791,-87.5561,1.516,15.01,1111122 
DISL,ioos:station:DISL:PPTA:1,2017-01-04T00:30:00Z,30.2791,-87.5561,1.526,14.56,1111122 
DISL,ioos:station:DISL:PPTA:1,2017-01-04T01:00:00Z,30.2791,-87.5561,1.524,15.39,1111122 
DISL,ioos:station:DISL:PPTA:1,2017-01-04T01:30:00Z,30.2791,-87.5561,1.536,16.82,1111122 
DISL,ioos:station:DISL:PPTA:1,2017-01-04T02:00:00Z,30.2791,-87.5561,1.53,15.42,1111122 
DISL,ioos:station:DISL:PPTA:1,2017-01-04T02:30:00Z,30.2791,-87.5561,1.533,15.76,1111122 
DISL,ioos:station:DISL:PPTA:1,2017-01-04T03:00:00Z,30.2791,-87.5561,1.55,14.92,1111122 
DISL,ioos:station:DISL:PPTA:1,2017-01-04T03:30:00Z,30.2791,-87.5561,1.553,14.3,1111122 
DISL,ioos:station:DISL:PPTA:1,2017-01-04T04:00:00Z,30.2791,-87.5561,1.553,15.31,1111122 
DISL,ioos:station:DISL:PPTA:1,2017-01-04T04:30:00Z,30.2791,-87.5561,1.555,13.03,1111122 
DISL,ioos:station:DISL:PPTA:1,2017-01-04T05:00:00Z,30.2791,-87.5561,1.555,11.71,1111122 
DISL,ioos:station:DISL:PPTA:1,2017-01-04T05:30:00Z,30.2791,-87.5561,1.559,13.42,1111122 
DISL,ioos:station:DISL:PPTA:1,2017-01-04T06:00:00Z,30.2791,-87.5561,1.545,13.13,1111122 
DISL,ioos:station:DISL:PPTA:1,2017-01-04T06:30:00Z,30.2791,-87.5561,1.538,22.16,1111122 
DISL,ioos:station:DISL:PPTA:1,2017-01-04T07:00:00Z,30.2791,-87.5561,1.544,21.95,1111122 
DISL,ioos:station:DISL:PPTA:1,2017-01-04T07:30:00Z,30.2791,-87.5561,1.554,16.3,1111122 
DISL,ioos:station:DISL:PPTA:1,2017-01-04T08:00:00Z,30.2791,-87.5561,1.555,15.35,1111122 
DISL,ioos:station:DISL:PPTA:1,2017-01-04T08:30:00Z,30.2791,-87.5561,1.533,23.64,1111122 
DISL,ioos:station:DISL:PPTA:1,2017-01-04T09:00:00Z,30.2791,-87.5561,1.526,17.68,1111122 
DISL,ioos:station:DISL:PPTA:1,2017-01-04T09:30:00Z,30.2791,-87.5561,1.518,12.12,1111122 
DISL,ioos:station:DISL:PPTA:1,2017-01-04T10:00:00Z,30.2791,-87.5561,1.49,22.33,1111122 
DISL,ioos:station:DISL:PPTA:1,2017-01-04T10:30:00Z,30.2791,-87.5561,1.489,19.67,1111122 
DISL,ioos:station:DISL:PPTA:1,2017-01-04T11:00:00Z,30.2791,-87.5561,1.483,15.56,1111122 
DISL,ioos:station:DISL:PPTA:1,2017-01-04T11:30:00Z,30.2791,-87.5561,1.47,16.78,1111122 
DISL,ioos:station:DISL:PPTA:1,2017-01-04T12:00:00Z,30.2791,-87.5561,1.452,13.46,1111122 
DISL,ioos:station:DISL:PPTA:1,2017-01-04T12:30:00Z,30.2791,-87.5561,1.434,12.43,1111122 
DISL,ioos:station:DISL:PPTA:1,2017-01-04T13:00:00Z,30.2791,-87.5561,1.419,12.22,1111122 
DISL,ioos:station:DISL:PPTA:1,2017-01-04T13:30:00Z,30.2791,-87.5561,1.407,12.52,1111122 
DISL,ioos:station:DISL:PPTA:1,2017-01-04T14:00:00Z,30.2791,-87.5561,1.41,12.47,1111122 
DISL,ioos:station:DISL:PPTA:1,2017-01-04T14:30:00Z,30.2791,-87.5561,1.392,12.6,1111122 
DISL,ioos:station:DISL:PPTA:1,2017-01-04T15:00:00Z,30.2791,-87.5561,1.386,12.56,1111122 
DISL,ioos:station:DISL:PPTA:1,2017-01-04T15:30:00Z,30.2791,-87.5561,1.392,11.84,1111122 
DISL,ioos:station:DISL:PPTA:1,2017-01-04T16:00:00Z,30.2791,-87.5561,1.395,11.18,1111122 
DISL,ioos:station:DISL:PPTA:1,2017-01-04T16:30:00Z,30.2791,-87.5561,1.39,11.28,1111122 
DISL,ioos:station:DISL:PPTA:1,2017-01-04T17:00:00Z,30.2791,-87.5561,1.39,11.32,1111122 
DISL,ioos:station:DISL:PPTA:1,2017-01-04T17:30:00Z,30.2791,-87.5561,1.395,12.46,1111122 
DISL,ioos:station:DISL:PPTA:1,2017-01-04T18:00:00Z,30.2791,-87.5561,1.389,13.26,1111122 
DISL,ioos:station:DISL:PPTA:1,2017-01-04T18:30:00Z,30.2791,-87.5561,1.38,12.88,1111122 
DISL,ioos:station:DISL:PPTA:1,2017-01-04T19:00:00Z,30.2791,-87.5561,1.385,11.8,1111122 
DISL,ioos:station:DISL:PPTA:1,2017-01-04T19:30:00Z,30.2791,-87.5561,1.397,9.0,1111122 
DISL,ioos:station:DISL:PPTA:1,2017-01-04T20:00:00Z,30.2791,-87.5561,1.412,8.52,1111122 
DISL,ioos:station:DISL:PPTA:1,2017-01-04T20:30:00Z,30.2791,-87.5561,1.411,8.54,1111122 
DISL,ioos:station:DISL:PPTA:1,2017-01-04T21:00:00Z,30.2791,-87.5561,1.392,9.5,1111122 
DISL,ioos:station:DISL:PPTA:1,2017-01-04T21:30:00Z,30.2791,-87.5561,1.387,11.58,1111122 
DISL,ioos:station:DISL:PPTA:1,2017-01-04T22:00:00Z,30.2791,-87.5561,1.396,10.49,1111122 
DISL,ioos:station:DISL:PPTA:1,2017-01-04T22:30:00Z,30.2791,-87.5561,1.374,8.99,1111122 
DISL,ioos:station:DISL:PPTA:1,2017-01-04T23:00:00Z,30.2791,-87.5561,1.376,8.7,1111122 
DISL,ioos:station:DISL:PPTA:1,2017-01-04T23:30:00Z,30.2791,-87.5561,1.395,7.77,1111122 
DISL,ioos:station:DISL:PPTA:1,2017-01-05T00:00:00Z,30.2791,-87.5561,1.395,8.08,1111122 
DISL,ioos:station:DISL:PPTA:1,2017-01-05T00:30:00Z,30.2791,-87.5561,1.366,8.98,1111122 
DISL,ioos:station:DISL:PPTA:1,2017-01-05T01:00:00Z,30.2791,-87.5561,1.388,7.56,1111122 
DISL,ioos:station:DISL:PPTA:1,2017-01-05T01:30:00Z,30.2791,-87.5561,1.344,7.93,1111122 
DISL,ioos:station:DISL:PPTA:1,2017-01-05T02:00:00Z,30.2791,-87.5561,1.333,8.22,1111122 
DISL,ioos:station:DISL:PPTA:1,2017-01-05T02:30:00Z,30.2791,-87.5561,1.381,7.22,1111122 
DISL,ioos:station:DISL:PPTA:1,2017-01-05T03:00:00Z,30.2791,-87.5561,1.349,7.55,1111122 
DISL,ioos:station:DISL:PPTA:1,2017-01-05T03:30:00Z,30.2791,-87.5561,1.367,7.66,1111122 
DISL,ioos:station:DISL:PPTA:1,2017-01-05T04:00:00Z,30.2791,-87.5561,1.389,7.02,1111122 
DISL,ioos:station:DISL:PPTA:1,2017-01-05T04:30:00Z,30.2791,-87.5561,1.34,7.68,1111122 
DISL,ioos:station:DISL:PPTA:1,2017-01-05T05:00:00Z,30.2791,-87.5561,1.38,7.12,1111122 
DISL,ioos:station:DISL:PPTA:1,2017-01-05T05:30:00Z,30.2791,-87.5561,1.349,7.02,1111122 
DISL,ioos:station:DISL:PPTA:1,2017-01-05T06:00:00Z,30.2791,-87.5561,1.376,6.8,1111122 
DISL,ioos:station:DISL:PPTA:1,2017-01-05T06:30:00Z,30.2791,-87.5561,1.362,9.52,1111122 
DISL,ioos:station:DISL:PPTA:1,2017-01-05T07:00:00Z,30.2791,-87.5561,1.345,7.26,1111122 
DISL,ioos:station:DISL:PPTA:1,2017-01-05T07:30:00Z,30.2791,-87.5561,1.364,6.92,1111122 
DISL,ioos:station:DISL:PPTA:1,2017-01-05T08:00:00Z,30.2791,-87.5561,1.357,6.83,1111122 
DISL,ioos:station:DISL:PPTA:1,2017-01-05T08:30:00Z,30.2791,-87.5561,1.358,6.28,1111122 
DISL,ioos:station:DISL:PPTA:1,2017-01-05T09:00:00Z,30.2791,-87.5561,1.352,9.26,1111122 
DISL,ioos:station:DISL:PPTA:1,2017-01-05T09:30:00Z,30.2791,-87.5561,1.34,6.44,1111122 
DISL,ioos:station:DISL:PPTA:1,2017-01-05T10:00:00Z,30.2791,-87.5561,1.341,15.01,1111122 
DISL,ioos:station:DISL:PPTA:1,2017-01-05T10:30:00Z,30.2791,-87.5561,1.338,6.26,1111122 
DISL,ioos:station:DISL:PPTA:1,2017-01-05T11:00:00Z,30.2791,-87.5561,1.32,10.78,1111122 
DISL,ioos:station:DISL:PPTA:1,2017-01-05T11:30:00Z,30.2791,-87.5561,1.329,6.16,1111122 
DISL,ioos:station:DISL:PPTA:1,2017-01-05T12:00:00Z,30.2791,-87.5561,1.306,6.61,1111122 
DISL,ioos:station:DISL:PPTA:1,2017-01-05T12:30:00Z,30.2791,-87.5561,1.3,6.83,1111122 
DISL,ioos:station:DISL:PPTA:1,2017-01-05T13:00:00Z,30.2791,-87.5561,1.317,12.34,1111122 
DISL,ioos:station:DISL:PPTA:1,2017-01-05T13:30:00Z,30.2791,-87.5561,1.289,9.15,1111122 
DISL,ioos:station:DISL:PPTA:1,2017-01-05T14:00:00Z,30.2791,-87.5561,1.32,6.96,1111122 
DISL,ioos:station:DISL:PPTA:1,2017-01-05T14:30:00Z,30.2791,-87.5561,1.305,5.83,1111122 
DISL,ioos:station:DISL:PPTA:1,2017-01-05T15:00:00Z,30.2791,-87.5561,1.288,6.86,1111122 
DISL,ioos:station:DISL:PPTA:1,2017-01-05T15:30:00Z,30.2791,-87.5561,1.296,8.43,1111122 
DISL,ioos:station:DISL:PPTA:1,2017-01-05T16:00:00Z,30.2791,-87.5561,1.299,5.71,1111122 
DISL,ioos:station:DISL:PPTA:1,2017-01-05T16:30:00Z,30.2791,-87.5561,1.299,5.96,1111122 
DISL,ioos:station:DISL:PPTA:1,2017-01-05T17:00:00Z,30.2791,-87.5561,1.311,5.63,1111122 
DISL,ioos:station:DISL:PPTA:1,2017-01-05T17:30:00Z,30.2791,-87.5561,1.296,8.32,1111122 
DISL,ioos:station:DISL:PPTA:1,2017-01-05T18:00:00Z,30.2791,-87.5561,1.299,5.89,1111122 
DISL,ioos:station:DISL:PPTA:1,2017-01-05T18:30:00Z,30.2791,-87.5561,1.31,7.48,1111122 
DISL,ioos:station:DISL:PPTA:1,2017-01-05T19:00:00Z,30.2791,-87.5561,1.306,7.82,1111122 
DISL,ioos:station:DISL:PPTA:1,2017-01-05T19:30:00Z,30.2791,-87.5561,1.308,8.78,1111122 
DISL,ioos:station:DISL:PPTA:1,2017-01-05T20:00:00Z,30.2791,-87.5561,1.313,8.21,1111122 
DISL,ioos:station:DISL:PPTA:1,2017-01-05T20:30:00Z,30.2791,-87.5561,1.296,17.03,1111122 
DISL,ioos:station:DISL:PPTA:1,2017-01-05T21:00:00Z,30.2791,-87.5561,1.296,27.6,1111122 
DISL,ioos:station:DISL:PPTA:1,2017-01-05T21:30:00Z,30.2791,-87.5561,1.291,33.11,1111122 
DISL,ioos:station:DISL:PPTA:1,2017-01-05T22:00:00Z,30.2791,-87.5561,1.296,31.61,1111122 
DISL,ioos:station:DISL:PPTA:1,2017-01-05T22:30:00Z,30.2791,-87.5561,1.304,33.71,1111122 
DISL,ioos:station:DISL:PPTA:1,2017-01-05T23:00:00Z,30.2791,-87.5561,1.323,33.77,1111122 
DISL,ioos:station:DISL:PPTA:1,2017-01-05T23:30:00Z,30.2791,-87.5561,1.322,34.19,1111122 
DISL,ioos:station:DISL:PPTA:1,2017-01-06T00:00:00Z,30.2791,-87.5561,1.316,33.36,1111122 
DISL,ioos:station:DISL:PPTA:1,2017-01-06T00:30:00Z,30.2791,-87.5561,1.326,33.92,1111122 
DISL,ioos:station:DISL:PPTA:1,2017-01-06T01:00:00Z,30.2791,-87.5561,1.339,16.87,1111122 
DISL,ioos:station:DISL:PPTA:1,2017-01-06T01:30:00Z,30.2791,-87.5561,1.339,6.14,1111122 
DISL,ioos:station:DISL:PPTA:1,2017-01-06T02:00:00Z,30.2791,-87.5561,1.345,8.06,1111122 
DISL,ioos:station:DISL:PPTA:1,2017-01-06T02:30:00Z,30.2791,-87.5561,1.363,12.01,1111122 
DISL,ioos:station:DISL:PPTA:1,2017-01-06T03:00:00Z,30.2791,-87.5561,1.356,10.46,1111122 
DISL,ioos:station:DISL:PPTA:1,2017-01-06T03:30:00Z,30.2791,-87.5561,1.365,10.0,1111122 
DISL,ioos:station:DISL:PPTA:1,2017-01-06T04:00:00Z,30.2791,-87.5561,1.365,7.73,1111122 
DISL,ioos:station:DISL:PPTA:1,2017-01-06T04:30:00Z,30.2791,-87.5561,1.345,6.47,1111122 
DISL,ioos:station:DISL:PPTA:1,2017-01-06T05:00:00Z,30.2791,-87.5561,1.357,7.49,1111122 
DISL,ioos:station:DISL:PPTA:1,2017-01-06T05:30:00Z,30.2791,-87.5561,1.351,6.34,1111122 
DISL,ioos:station:DISL:PPTA:1,2017-01-06T06:00:00Z,30.2791,-87.5561,1.37,6.62,1111122 
DISL,ioos:station:DISL:PPTA:1,2017-01-06T06:30:00Z,30.2791,-87.5561,1.359,6.54,1111122 
DISL,ioos:station:DISL:PPTA:1,2017-01-06T07:00:00Z,30.2791,-87.5561,1.356,7.25,1111122 
DISL,ioos:station:DISL:PPTA:1,2017-01-06T07:30:00Z,30.2791,-87.5561,1.347,5.82,1111122 
DISL,ioos:station:DISL:PPTA:1,2017-01-06T08:00:00Z,30.2791,-87.5561,1.351,6.69,1111122 
DISL,ioos:station:DISL:PPTA:1,2017-01-06T08:30:00Z,30.2791,-87.5561,1.348,5.19,1111122 
DISL,ioos:station:DISL:PPTA:1,2017-01-06T09:00:00Z,30.2791,-87.5561,1.355,7.06,1111122 
DISL,ioos:station:DISL:PPTA:1,2017-01-06T09:30:00Z,30.2791,-87.5561,1.359,7.02,1111122 
DISL,ioos:station:DISL:PPTA:1,2017-01-06T10:00:00Z,30.2791,-87.5561,1.344,6.82,1111122 
DISL,ioos:station:DISL:PPTA:1,2017-01-06T10:30:00Z,30.2791,-87.5561,1.345,6.32,1111122 
DISL,ioos:station:DISL:PPTA:1,2017-01-06T11:00:00Z,30.2791,-87.5561,1.319,4.84,1111122 
DISL,ioos:station:DISL:PPTA:1,2017-01-06T11:30:00Z,30.2791,-87.5561,1.317,5.72,1111122 
DISL,ioos:station:DISL:PPTA:1,2017-01-06T12:00:00Z,30.2791,-87.5561,1.329,5.4,1111122 
DISL,ioos:station:DISL:PPTA:1,2017-01-06T12:30:00Z,30.2791,-87.5561,1.324,10.61,1111122 
DISL,ioos:station:DISL:PPTA:1,2017-01-06T13:00:00Z,30.2791,-87.5561,1.322,4.72,1111122 
DISL,ioos:station:DISL:PPTA:1,2017-01-06T13:30:00Z,30.2791,-87.5561,1.343,6.84,1111122 
DISL,ioos:station:DISL:PPTA:1,2017-01-06T14:00:00Z,30.2791,-87.5561,1.345,4.79,1111122 
DISL,ioos:station:DISL:PPTA:1,2017-01-06T14:30:00Z,30.2791,-87.5561,1.312,5.8,1111122 